Location: Jackson
(42.2460°N, 84.4010°W)
Time: 18:35:34
(UTC-04:00)

Courier 1B Rocket - Pass Details

Date: 14 February 2026
Orbit: 920 x 1201 km, 28.2° (Epoch: 12 March)

Event Time Altitude Azimuth Distance (km) Brightness Sun altitude
Rises 22:09:45 0° 237° (WSW) 3,618 8.3 -44.2°
Enters shadow 22:10:55 - 233° (SW) 3,258 8.0 -44.4°
Reaches altitude 10° 22:12:52 10° 224° (SW) 2,710 - -44.7°
Maximum altitude 22:17:54 23° 173° (S) 1,974 - -45.5°
Drops below altitude 10° 22:23:11 10° 123° (ESE) 2,863 - -46.3°
Sets 22:26:34 0° 110° (ESE) 3,872 - -46.9°
